• en France
  • Liste des pays
  • À 7 jours
  • Température de l'eau
  • Carte satellitaire
  • Carte météo
  • Widgets météo
  • user-avatar
    Se connecter

    Météo par heure à Zhuravlevka

    Ce jour, 20 Mai, Dimanche

    Heure Température Précipitation Vent Pression Humidité
    00:00 +14°C° 0 mm 2 m/s 744 mmHg 93%
    01:00 +13°C° 0 mm 2 m/s 744 mmHg 94%
    02:00 +13°C° 0 mm 2 m/s 744 mmHg 95%
    03:00 +13°C° 0 mm 2 m/s 744 mmHg 96%
    04:00 +13°C° 0 mm 2 m/s 744 mmHg 95%
    05:00 +13°C° 0 mm 2 m/s 745 mmHg 94%
    06:00 +14°C° 0 mm 2 m/s 745 mmHg 94%
    07:00 +15°C° 0 mm 2 m/s 746 mmHg 89%
    08:00 +16°C° 0 mm 2 m/s 746 mmHg 84%
    09:00 +18°C° 0 mm 2 m/s 746 mmHg 78%
    10:00 +18°C° 0,1 mm 2 m/s 746 mmHg 75%
    11:00 +19°C° 0,1 mm 2 m/s 747 mmHg 71%
    12:00 +20°C° 0,1 mm 2 m/s 747 mmHg 67%
    13:00 +20°C° 0,3 mm 2 m/s 747 mmHg 66%
    14:00 +21°C° 0,3 mm 2 m/s 747 mmHg 66%
    15:00 +21°C° 0,3 mm 3 m/s 747 mmHg 65%
    16:00 +20°C° 0,5 mm 3 m/s 747 mmHg 69%
    17:00 +20°C° 0,5 mm 3 m/s 747 mmHg 74%
    18:00 +19°C° 0,5 mm 3 m/s 747 mmHg 78%
    19:00 +18°C° 0,5 mm 4 m/s 748 mmHg 81%
    20:00 +17°C° 0,5 mm 4 m/s 748 mmHg 84%
    21:00 +15°C° 0,5 mm 4 m/s 749 mmHg 87%
    22:00 +14°C° 0,1 mm 5 m/s 749 mmHg 87%
    23:00 +13°C° 0,1 mm 5 m/s 749 mmHg 88%

    Demain, 21 Mai, Lundi

    Heure Température Précipitation Vent Pression Humidité
    00:00 +12°C° 0,1 mm 5 m/s 749 mmHg 88%
    01:00 +12°C° 0 mm 5 m/s 750 mmHg 88%
    02:00 +10°C° 0 mm 5 m/s 750 mmHg 88%
    03:00 +10°C° 0 mm 5 m/s 750 mmHg 88%
    04:00 +9°C° 0,1 mm 5 m/s 751 mmHg 86%
    05:00 +9°C° 0,1 mm 6 m/s 751 mmHg 85%
    06:00 +9°C° 0,1 mm 6 m/s 751 mmHg 83%
    07:00 +9°C° 0,7 mm 6 m/s 751 mmHg 81%
    08:00 +9°C° 0,7 mm 6 m/s 752 mmHg 80%
    09:00 +10°C° 0,7 mm 6 m/s 752 mmHg 78%
    10:00 +10°C° 1,3 mm 6 m/s 752 mmHg 79%
    11:00 +10°C° 1,3 mm 6 m/s 752 mmHg 80%
    12:00 +12°C° 1,3 mm 5 m/s 753 mmHg 81%
    13:00 +12°C° 0,4 mm 5 m/s 753 mmHg 80%
    14:00 +13°C° 0,4 mm 5 m/s 753 mmHg 80%
    15:00 +13°C° 0,4 mm 5 m/s 753 mmHg 79%
    16:00 +14°C° 0,1 mm 5 m/s 753 mmHg 79%
    17:00 +14°C° 0,1 mm 5 m/s 753 mmHg 79%
    18:00 +14°C° 0,1 mm 5 m/s 753 mmHg 79%
    19:00 +14°C° 0 mm 5 m/s 753 mmHg 79%
    20:00 +14°C° 0 mm 5 m/s 753 mmHg 79%
    21:00 +14°C° 0 mm 5 m/s 754 mmHg 79%
    22:00 +13°C° 0 mm 5 m/s 754 mmHg 78%
    23:00 +13°C° 0 mm 5 m/s 754 mmHg 78%

    Après-demain, 22 Mai, Mardi

    Heure Température Précipitation Vent Pression Humidité
    00:00 +12°C° 0 mm 5 m/s 754 mmHg 78%
    01:00 +12°C° 0 mm 5 m/s 754 mmHg 78%
    02:00 +10°C° 0 mm 5 m/s 755 mmHg 78%
    03:00 +10°C° 0 mm 5 m/s 755 mmHg 78%
    04:00 +10°C° 0 mm 5 m/s 755 mmHg 79%
    05:00 +10°C° 0 mm 5 m/s 755 mmHg 80%
    06:00 +10°C° 0 mm 5 m/s 755 mmHg 81%
    07:00 +13°C° 0 mm 5 m/s 755 mmHg 78%
    08:00 +14°C° 0 mm 5 m/s 755 mmHg 75%
    09:00 +15°C° 0 mm 6 m/s 756 mmHg 71%
    10:00 +17°C° 0 mm 6 m/s 756 mmHg 69%
    11:00 +19°C° 0 mm 6 m/s 756 mmHg 67%
    12:00 +21°C° 0 mm 6 m/s 756 mmHg 65%
    13:00 +21°C° 0 mm 6 m/s 755 mmHg 65%
    14:00 +22°C° 0 mm 6 m/s 755 mmHg 65%
    15:00 +23°C° 0 mm 5 m/s 755 mmHg 64%
    16:00 +23°C° 0 mm 5 m/s 755 mmHg 67%
    17:00 +23°C° 0 mm 4 m/s 755 mmHg 70%
    18:00 +22°C° 0 mm 4 m/s 755 mmHg 73%
    19:00 +21°C° 0 mm 4 m/s 755 mmHg 78%
    20:00 +19°C° 0 mm 4 m/s 755 mmHg 82%
    21:00 +18°C° 0 mm 3 m/s 755 mmHg 87%
    22:00 +18°C° 0,2 mm 3 m/s 755 mmHg 86%
    23:00 +17°C° 0,2 mm 3 m/s 755 mmHg 86%

    23 Mai, Mercredi

    Heure Température Précipitation Vent Pression Humidité
    00:00 +17°C° 0,2 mm 3 m/s 755 mmHg 85%
    01:00 +16°C° 0,1 mm 3 m/s 755 mmHg 84%
    02:00 +16°C° 0,1 mm 3 m/s 755 mmHg 84%
    03:00 +14°C° 0,1 mm 3 m/s 754 mmHg 83%
    04:00 +16°C° 0 mm 3 m/s 754 mmHg 82%
    05:00 +16°C° 0 mm 3 m/s 754 mmHg 81%
    06:00 +16°C° 0 mm 3 m/s 754 mmHg 80%
    07:00 +17°C° 0 mm 3 m/s 754 mmHg 77%
    08:00 +18°C° 0 mm 3 m/s 754 mmHg 75%
    09:00 +18°C° 0 mm 3 m/s 754 mmHg 72%
    10:00 +19°C° 0,1 mm 3 m/s 754 mmHg 71%
    11:00 +19°C° 0,1 mm 3 m/s 754 mmHg 70%
    12:00 +20°C° 0,1 mm 4 m/s 754 mmHg 70%
    13:00 +21°C° 0 mm 4 m/s 753 mmHg 66%
    14:00 +22°C° 0 mm 4 m/s 753 mmHg 62%
    15:00 +25°C° 0 mm 5 m/s 753 mmHg 58%
    16:00 +23°C° 0 mm 4 m/s 752 mmHg 62%
    17:00 +24°C° 0 mm 3 m/s 752 mmHg 66%
    18:00 +24°C° 0 mm 3 m/s 752 mmHg 70%
    19:00 +21°C° 0 mm 2 m/s 751 mmHg 76%
    20:00 +20°C° 0 mm 2 m/s 751 mmHg 82%
    21:00 +19°C° 0 mm 1 m/s 751 mmHg 88%
    22:00 +19°C° 0 mm 1 m/s 751 mmHg 89%
    23:00 +18°C° 0 mm 1 m/s 751 mmHg 90%

    24 Mai, Jeudi

    Heure Température Précipitation Vent Pression Humidité
    00:00 +18°C° 0 mm 1 m/s 750 mmHg 91%
    01:00 +18°C° 0,3 mm 1 m/s 750 mmHg 92%
    02:00 +18°C° 0,3 mm 1 m/s 750 mmHg 93%
    03:00 +17°C° 0,3 mm 2 m/s 750 mmHg 94%
    04:00 +17°C° 0,9 mm 2 m/s 750 mmHg 94%
    05:00 +17°C° 0,9 mm 2 m/s 750 mmHg 94%
    06:00 +18°C° 0,9 mm 2 m/s 750 mmHg 93%
    07:00 +19°C° 0,6 mm 2 m/s 750 mmHg 89%
    08:00 +20°C° 0,6 mm 2 m/s 750 mmHg 86%
    09:00 +21°C° 0,6 mm 2 m/s 750 mmHg 82%
    10:00 +21°C° 0,9 mm 2 m/s 750 mmHg 79%
    11:00 +22°C° 0,9 mm 3 m/s 750 mmHg 75%
    12:00 +24°C° 0,9 mm 3 m/s 749 mmHg 72%
    13:00 +24°C° 0,8 mm 3 m/s 749 mmHg 73%
    14:00 +24°C° 0,8 mm 3 m/s 749 mmHg 73%
    15:00 +24°C° 0,8 mm 2 m/s 749 mmHg 74%
    16:00 +23°C° 0,4 mm 2 m/s 749 mmHg 77%
    17:00 +23°C° 0,4 mm 2 m/s 749 mmHg 80%
    18:00 +23°C° 0,4 mm 1 m/s 748 mmHg 83%
    19:00 +21°C° 0,9 mm 1 m/s 748 mmHg 83%
    20:00 +20°C° 0,9 mm 1 m/s 749 mmHg 84%
    21:00 +19°C° 0,9 mm 1 m/s 749 mmHg 84%
    22:00 +19°C° 0,2 mm 1 m/s 749 mmHg 86%
    23:00 +18°C° 0,2 mm 1 m/s 749 mmHg 87%

    25 Mai, Vendredi

    Heure Température Précipitation Vent Pression Humidité
    00:00 +18°C° 0,2 mm 1 m/s 749 mmHg 89%
    01:00 +17°C° 0,2 mm 2 m/s 749 mmHg 91%
    02:00 +16°C° 0,2 mm 3 m/s 749 mmHg 93%
    03:00 +16°C° 0,2 mm 3 m/s 750 mmHg 94%
    04:00 +15°C° 0,6 mm 4 m/s 750 mmHg 94%
    05:00 +15°C° 0,6 mm 5 m/s 751 mmHg 94%
    06:00 +14°C° 0,6 mm 5 m/s 751 mmHg 94%
    07:00 +14°C° 0,1 mm 6 m/s 752 mmHg 93%
    08:00 +13°C° 0,1 mm 6 m/s 752 mmHg 92%
    09:00 +12°C° 0,1 mm 7 m/s 753 mmHg 91%
    10:00 +12°C° 0 mm 7 m/s 753 mmHg 89%
    11:00 +12°C° 0 mm 7 m/s 753 mmHg 87%
    12:00 +11°C° 0 mm 7 m/s 754 mmHg 85%
    13:00 +14°C° 0 mm 7 m/s 754 mmHg 80%
    14:00 +15°C° 0 mm 7 m/s 754 mmHg 76%
    15:00 +16°C° 0 mm 7 m/s 755 mmHg 71%
    16:00 +16°C° 0 mm 6 m/s 755 mmHg 71%
    17:00 +16°C° 0 mm 6 m/s 755 mmHg 71%
    18:00 +15°C° 0 mm 5 m/s 755 mmHg 71%
    19:00 +14°C° 0 mm 5 m/s 756 mmHg 71%
    20:00 +13°C° 0 mm 5 m/s 756 mmHg 71%
    21:00 +10°C° 0 mm 5 m/s 757 mmHg 71%
    22:00 +10°C° 0 mm 4 m/s 757 mmHg 72%
    23:00 +8°C° 0 mm 4 m/s 757 mmHg 73%
    Voir plus